Date String (YYYY-MM-DD hh:mm:ss) UTC,Instrument flags,absolute air pressure of the measurement (hPa),sample flow rate (lpm),inlet stack bypass flow (lpm),air temperature of the measurement (°C),ambient temperature measured by the external sensor (°C),aerosol sample conditioner tube jacket temperature (°C),OPC LED temperature (°C),internal box temperature (°C),relative humidity of the measurement (%),span deviation,mass concentration of particles derived from Lorenz-Mie calculation of OPC scattering (μg/m³),mass concentration of particles derived from Lorenz-Mie calculation of OPC scattering (μg/m³),mass concentration of particles derived from Lorenz-Mie calculation of OPC scattering (μg/m³)
DateTimeUTC,F1_M11,P_M11,Q1_M11,Q2_M11,T1_M11,T2_M11,T3_M11,T4_M11,T5_M11,U1_M11,ZSPAN_M11,X2_M11,X0_M11,X1_M11
2023-10-18 20:00:00,SystemResetWarning,0831.9,5.00,000.00,028.4,026.7,000.0,036.9,030.2,15.2,0000.0,0003.45,0013.20,0001.97
2023-10-18 20:01:00,SystemResetWarning,0831.9,5.00,000.00,028.5,026.9,000.0,036.9,030.2,15.3,0000.0,0003.41,0012.98,0001.97
2023-10-18 20:02:00,SystemResetWarning,0831.8,5.00,000.00,028.5,027.1,000.0,036.9,030.3,15.4,0000.0,0003.42,0013.30,0001.97
2023-10-18 20:03:00,SystemResetWarning,0831.8,5.00,000.00,028.5,027.2,000.0,036.9,030.3,15.2,0000.0,0003.41,0012.77,0001.97
2023-10-18 20:04:00,SystemResetWarning,0831.8,5.00,000.00,028.6,027.4,000.0,036.9,030.4,15.0,0000.0,0003.41,0011.84,0001.95
2023-10-18 20:05:00,SystemResetWarning,0831.8,4.99,000.00,028.6,027.5,000.0,037.0,030.4,15.0,0000.0,0003.43,0011.33,0001.95
2023-10-18 20:06:00,SystemResetWarning,0831.8,4.99,000.00,028.7,027.4,000.0,037.0,030.5,14.8,0000.0,0003.44,0011.33,0001.96
2023-10-18 20:07:00,SystemResetWarning,0831.8,5.00,000.00,028.6,025.8,000.0,036.9,030.3,14.9,0000.0,0003.39,0010.90,0001.96
2023-10-18 20:08:00,SystemResetWarning,0831.8,5.02,000.00,028.6,025.1,000.0,036.9,030.2,14.9,0000.0,0003.44,0010.82,0001.96
2023-10-18 20:09:00,SystemResetWarning,0831.8,5.00,000.00,028.5,025.2,000.0,036.9,030.1,14.8,0000.0,0003.46,0011.65,0001.95
2023-10-18 20:10:00,SystemResetWarning,0831.8,5.00,000.00,028.4,025.5,000.0,036.9,030.0,15.1,0000.0,0003.44,0011.44,0001.94
2023-10-18 20:11:00,SystemResetWarning,0831.9,5.00,000.00,028.4,025.9,000.0,036.9,030.0,15.7,0000.0,0003.43,0011.67,0001.93
2023-10-18 20:12:00,SystemResetWarning,0831.8,5.00,000.00,028.4,026.2,000.0,036.9,030.1,15.4,0000.0,0003.41,0011.83,0001.92
2023-10-18 20:13:00,SystemResetWarning,0831.8,5.00,000.00,028.4,026.5,000.0,036.9,030.2,15.4,0000.0,0003.41,0011.93,0001.93
2023-10-18 20:14:00,SystemResetWarning,0832.1,5.01,000.00,028.5,026.7,000.0,036.9,030.2,15.3,0000.0,0003.42,0012.19,0001.92
2023-10-18 20:15:00,SystemResetWarning,0831.8,5.00,000.00,028.5,027.0,000.0,036.9,030.3,15.3,0000.0,0003.40,0011.79,0001.93
2023-10-18 20:16:00,SystemResetWarning,0831.8,5.00,000.00,028.5,027.2,000.0,036.9,030.3,15.2,0000.0,0003.41,0012.35,0001.93
2023-10-18 20:17:00,SystemResetWarning,0831.7,5.00,000.00,028.6,027.3,000.0,037.0,030.4,15.1,0000.0,0003.39,0013.14,0001.92
2023-10-18 20:18:00,SystemResetWarning,0831.7,5.00,000.00,028.6,027.5,000.0,037.0,030.4,15.0,0000.0,0003.45,0013.38,0001.93
2023-10-18 20:19:00,SystemResetWarning,0831.7,4.99,000.00,028.7,027.1,000.0,037.0,030.5,14.9,0000.0,0003.45,0013.63,0001.94
2023-10-18 20:20:00,SystemResetWarning,0831.7,4.99,000.00,028.6,025.3,000.0,036.9,030.2,15.0,0000.0,0003.41,0012.79,0001.94
2023-10-18 20:21:00,SystemResetWarning,0831.7,5.01,000.00,028.5,024.2,000.0,036.9,030.0,15.2,0000.0,0003.46,0013.32,0001.94
2023-10-18 20:22:00,SystemResetWarning,0831.6,5.02,000.00,028.4,024.4,000.0,036.8,029.9,15.3,0000.0,0003.46,0013.63,0001.95
2023-10-18 20:23:00,SystemResetWarning,0831.7,4.99,000.00,028.3,024.7,000.0,036.8,029.8,15.3,0000.0,0003.47,0013.26,0001.96
2023-10-18 20:24:00,SystemResetWarning,0831.7,5.00,000.00,028.3,025.1,000.0,036.8,029.8,15.2,0000.0,0003.51,0013.55,0001.95
2023-10-18 20:25:00,SystemResetWarning,0831.7,5.01,000.00,028.3,025.6,000.0,036.8,029.9,15.1,0000.0,0003.51,0013.99,0001.95
2023-10-18 20:26:00,SystemResetWarning,0831.7,4.99,000.00,028.3,026.0,000.0,036.8,029.9,15.1,0000.0,0003.60,0014.61,0001.95
2023-10-18 20:27:00,SystemResetWarning,0831.7,5.00,000.00,028.3,026.3,000.0,036.8,030.0,15.1,0000.0,0003.59,0014.30,0001.95
2023-10-18 20:28:00,SystemResetWarning,0831.7,5.00,000.00,028.3,026.6,000.0,036.8,030.1,15.2,0000.0,0003.59,0014.96,0001.93
2023-10-18 20:29:00,SystemResetWarning,0831.7,5.00,000.00,028.4,026.8,000.0,036.8,030.1,15.2,0000.0,0003.62,0015.09,0001.92
2023-10-18 20:30:00,SystemResetWarning,0831.7,5.00,000.00,028.4,027.0,000.0,036.8,030.2,15.4,0000.0,0003.63,0015.53,0001.92
2023-10-18 20:31:00,SystemResetWarning,0831.8,5.01,000.00,028.4,027.2,000.0,036.9,030.2,15.5,0000.0,0003.63,0015.88,0001.92
2023-10-18 20:32:00,SystemResetWarning,0831.7,4.98,000.00,028.5,027.3,000.0,036.9,030.3,15.2,0000.0,0003.62,0015.74,0001.91
2023-10-18 20:33:00,SystemResetWarning,0831.7,5.01,000.00,028.5,027.5,000.0,036.9,030.4,15.2,0000.0,0003.65,0016.15,0001.90
2023-10-18 20:34:00,SystemResetWarning,0831.7,5.01,000.00,028.6,027.5,000.0,036.9,030.4,15.2,0000.0,0003.68,0017.00,0001.92
2023-10-18 20:35:00,SystemResetWarning,0831.6,4.99,000.00,028.6,026.2,000.0,036.9,030.3,15.0,0000.0,0003.68,0017.04,0001.94
2023-10-18 20:36:00,SystemResetWarning,0831.6,5.01,000.00,028.5,024.5,000.0,036.8,030.1,15.0,0000.0,0003.65,0016.55,0001.94
2023-10-18 20:37:00,SystemResetWarning,0831.6,5.01,000.00,028.4,024.2,000.0,036.8,029.9,15.0,0000.0,0003.60,0015.86,0001.95
2023-10-18 20:38:00,SystemResetWarning,0831.5,5.01,000.00,028.3,024.5,000.0,036.7,029.8,15.3,0000.0,0003.57,0015.15,0001.96
2023-10-18 20:39:00,SystemResetWarning,0831.5,4.99,000.00,028.2,024.9,000.0,036.8,029.7,15.6,0000.0,0003.60,0014.32,0001.97
2023-10-18 20:40:00,SystemResetWarning,0831.5,5.00,000.00,028.2,025.3,000.0,036.8,029.8,15.4,0000.0,0003.60,0014.75,0001.96
2023-10-18 20:41:00,SystemResetWarning,0831.6,5.01,000.00,028.2,025.7,000.0,036.8,029.9,15.3,0000.0,0003.65,0014.54,0001.96
2023-10-18 20:42:00,SystemResetWarning,0831.6,4.99,000.00,028.2,026.1,000.0,036.8,029.9,15.4,0000.0,0003.65,0014.00,0001.95
2023-10-18 20:43:00,SystemResetWarning,0831.6,5.00,000.00,028.3,026.4,000.0,036.8,030.0,15.5,0000.0,0003.60,0013.44,0001.95
2023-10-18 20:44:00,SystemResetWarning,0831.7,5.00,000.00,028.3,026.7,000.0,036.8,030.1,15.5,0000.0,0003.54,0012.47,0001.93
2023-10-18 20:45:00,SystemResetWarning,0831.7,5.00,000.00,028.3,026.9,000.0,036.8,030.1,15.4,0000.0,0003.52,0012.39,0001.90
2023-10-18 20:46:00,SystemResetWarning,0831.7,5.00,000.00,028.4,027.1,000.0,036.8,030.2,15.4,0000.0,0003.44,0011.77,0001.85
2023-10-18 20:47:00,SystemResetWarning,0831.7,5.00,000.00,028.4,027.2,000.0,036.8,030.2,15.3,0000.0,0003.45,0011.07,0001.84
2023-10-18 20:48:00,SystemResetWarning,0831.7,4.98,000.00,028.5,027.4,000.0,036.8,030.3,15.2,0000.0,0003.46,0010.88,0001.85
2023-10-18 20:49:00,SystemResetWarning,0831.6,5.01,000.00,028.5,027.5,000.0,036.9,030.4,15.3,0000.0,0003.48,0011.29,0001.83
2023-10-18 20:50:00,SystemResetWarning,0831.6,5.01,000.00,028.6,027.0,000.0,036.9,030.4,15.3,0000.0,0003.47,0010.87,0001.82
2023-10-18 20:51:00,SystemResetWarning,0831.6,4.98,000.00,028.5,025.1,000.0,036.8,030.2,15.4,0000.0,0003.45,0010.08,0001.81
2023-10-18 20:52:00,SystemResetWarning,0831.6,5.01,000.00,028.4,024.2,000.0,036.7,029.9,15.4,0000.0,0003.42,0009.82,0001.81
2023-10-18 20:53:00,SystemResetWarning,0831.6,5.01,000.00,028.3,024.4,000.0,036.7,029.8,15.2,0000.0,0003.43,0009.82,0001.83
2023-10-18 20:54:00,SystemResetWarning,0831.6,4.99,000.00,028.2,024.8,000.0,036.7,029.7,15.1,0000.0,0003.46,0010.40,0001.83
2023-10-18 20:55:00,SystemResetWarning,0831.6,5.01,000.00,028.2,025.2,000.0,036.7,029.8,15.2,0000.0,0003.49,0010.67,0001.85
2023-10-18 20:56:00,SystemResetWarning,0831.7,5.00,000.00,028.2,025.6,000.0,036.7,029.8,15.2,0000.0,0003.50,0011.23,0001.88
2023-10-18 20:57:00,SystemResetWarning,0831.7,4.99,000.00,028.2,026.0,000.0,036.7,029.9,15.3,0000.0,0003.54,0011.88,0001.90
2023-10-18 20:58:00,SystemResetWarning,0831.7,5.00,000.00,028.2,026.3,000.0,036.7,030.0,15.4,0000.0,0003.52,0011.85,0001.90
2023-10-18 20:59:00,SystemResetWarning,0831.7,5.00,000.00,028.3,026.6,000.0,036.7,030.0,15.3,0000.0,0003.50,0011.84,0001.89
